2019-038P (44399 NORAD) Tracking and Keplerian Element Data

This shows tracking and keplerian element data for the satellite.

Feedback or suggestion? Click here.




ElementValue
Catalog44399
Name2019-038P
Epoch Orbit187
Epoch Day198.87755439
Epoch Year2019
RAAN160.584
Inclination97.4907
Eccentricity0.0024228
Argument of Perigee204.6773
Mean Anonmoly155.33
Mean Motion15.11602067
Decay Rate2.03E-06
L11 44399U 19038P 19198.87755439 .00000203 00000-0 15717-4 0 9996
L22 44399 97.4907 160.5840 0024228 204.6773 155.3300 15.11602067 1870

Live tracking and technical data element details for 2019-038P (NORAD 44399). 2019-038P can be tracked NOW for your location showing map with azimuth and elevation plus other details from your city location.

Track the satellite on the map from your city or location and see movement details for azimuth, elevation, latitude, longitude, range, height, and movement on the map or in text.







IsCatalogInMostPopularTable: catalog: 44399, numindb: 2
Update: records affected: 1



GetName: 44399 2019-038P

Hit Count: updated at: Fri, 19 Jul 2019 08:02:09 GMT